FW1143 Weather Reports


time (UTC)temp
C
wind
direction
speed
KPH
gust
KPH
rain 1hr
cm
rain 24hr
cm
rain mn
cm
humidity
%
barometer
mb
20260507050051 12 311 1.6 6.4 0.00 0.36 0.05 92 999.6
20260507044605 12 312 1.6 4.8 0.00 0.36 0.05 91 999.3
20260507043101 12 328 1.6 6.4 0.03 0.36 0.05 91 999.2
20260507041549 12 331 1.6 6.4 0.03 0.36 0.05 91 999.1
20260507040041 13 337 1.6 11.3 0.03 0.36 0.05 90 999.1
20260507034538 13 325 3.2 16.1 0.03 0.36 0.05 90 999.1
20260507033035 14 330 4.8 11.3 0.00 0.33 0.03 92 998.8
20260507031531 14 309 3.2 14.5 0.00 0.33 0.03 93 998.4
20260507030029 15 279 6.4 12.9 0.00 0.33 0.03 94 998.3
20260507024526 15 314 1.6 9.7 0.00 0.33 0.03 95 998.0
20260507023025 15 285 1.6 6.4 0.00 0.33 0.03 96 998.2
20260507021522 15 283 0.0 8.0 0.00 0.33 0.03 95 998.2
20260507020027 15 257 0.0 0.0 0.00 0.33 0.03 95 997.8
20260507014548 15 311 0.0 0.0 0.00 0.33 0.03 95 997.9
20260507013046 15 270 0.0 0.0 0.00 0.33 0.03 95 997.8
20260507011547 15 288 1.6 4.8 0.00 0.33 0.03 95 997.8
20260507010044 15 297 4.8 12.9 0.00 0.33 0.03 95 997.8
20260507004543 15 258 1.6 9.7 0.00 0.33 0.03 95 997.8
20260507003040 15 277 3.2 14.5 0.03 0.33 0.03 95 997.8
20260507001604 15 127 0.0 16.1 0.03 0.33 0.03 95 997.6
20260507000041 15 267 3.2 14.5 0.03 0.33 0.03 95 997.7
20260506234533 15 289 1.6 12.9 0.08 0.33 0.03 95 997.5
20260506233030 15 260 3.2 14.5 0.08 0.30 0.00 95 997.6
20260506231523 15 235 1.6 11.3 0.13 0.30 0.00 95 997.4
20260506230019 15 252 0.0 12.9 0.15 0.30 0.15 95 997.6
20260506224516 15 250 0.0 4.8 0.08 0.23 0.08 94 997.6
20260506223012 15 278 1.6 8.0 0.08 0.23 0.08 94 997.6
20260506221607 15 276 1.6 11.3 0.03 0.18 0.03 94 997.7